星链-32081 (STARLINK-32081)

导读 | 豆包AI

STARLINK-32081是美国SpaceX公司星链(Starlink)星座的卫星,于2024年8月2日发射升空,属于星链第二代低轨互联网星座组网卫星,运行在约550公里近地轨道。卫星采用平板设计,搭载相控阵通信天线与霍尔推进器,具备自主避撞能力,旨在为全球提供低延迟宽带互联网服务,寿命末期会主动离轨坠入大气层销毁。

Basic Information
目录编号:
60348
目录名称:
STARLINK-32081
国际标识:
2024-136V
轨道中心:
EARTH
卫星名称:
星链-32081 (STARLINK-32081)
卫星全名:
星链-32081 (STARLINK-32081)
卫星状态:
在轨 (已飞行637 天)
发射日期:
2024-08-02 UTC
国别 :
美国 (US)
星等 :
--
Orbit Information
数据来源 国际轨道数据
星历时间: 2026-04-30T22:07:33+0800
14小时前
查看轨道信息
半长轴: 6853.475km
偏心率: 0.0001288
轨道倾角: 53.161°
近地点辐角 91.010°
升交点赤经 194.374°
平近点角 269.104°
近地点: 474.455km
远地点: 476.221km
周期: 94.108分钟
每日圈数: 15.301591
Detailed Information
卫星平台:
Starlink v2.0 mini
运营商:
太空探索技术公司
运营商所在国:
美国
制造商(研发单位):
太空探索技术公司
制造商所在国:
美国
使用方式:
暂无
Satellite Introduction
星链(Starlink)计划是由太空探索技术公司(SpaceX)提出的一个巨型低轨卫星互联网星座项目,计划在2019年至2024年间在太空搭建由约1.2万颗卫星组成的“星链”网络,其中1584颗将部署在地球上空550千米处的近地轨道,并从2020年开始工作。该卫星仍在工作。
2D Orbit Map
3D Orbit Map
Orbit Altitude Analysis Chart
Orbit Inclination Analysis Chart
Orbit Comprehensive Analysis Chart
View Comprehensive Chart